Location: Kawakawa
(35.3830°S, 174.0670°E)
Time: 18:14:15
(UTC+12:00)

Cosmos 1331 Rocket - Pass Details

Date: 15 August 2020
Orbit: 750 x 777 km, 74.0° (Epoch: 25 September)

Event Time Altitude Azimuth Distance (km) Brightness Sun altitude
Rises 19:45:46 0° 335° (NNW) 3,191 7.5 -23.7°
Reaches altitude 10° 19:48:09 10° 331° (NNW) 2,273 6.8 -24.2°
Maximum altitude 19:53:14 61° 251° (WSW) 859 4.4 -25.2°
Enters shadow 19:57:19 16° 173° (S) 1,898 6.0 -26.0°
